Location: Chochol
(49.7771°N, 14.9780°E)
Time: 01:06:56
(UTC+00:00)

Landsat 7 - Pass Details

Date: 09 April 2020
Orbit: 701 x 703 km, 98.1° (Epoch: 30 May)

Event Time Altitude Azimuth Distance (km) Brightness Sun altitude
Exits shadow 19:47:00 37° 133° (SE) 1,096 4.3 -18.5°
Maximum altitude 19:48:43 60° 71° (ENE) 809 3.9 -18.7°
Drops below altitude 10° 19:53:25 10° 352° (N) 2,183 7.0 -19.3°
Sets 19:55:42 0° 349° (N) 3,106 8.0 -19.6°
